Time,TemperatureF,DewpointF,PressureIn,WindDirection,WindDirectionDegrees,WindSpeedMPH,WindSpeedGustMPH,Humidity,HourlyPrecipIn,Conditions,Clouds,dailyrainin,SoftwareType,DateUTC
2013-04-30 00:05:00,49.4,48.0,30.00,NW,304,0.0,0.0,95,0.00,,,0.00,Wunderground v.1.15,2013-04-30 04:05:00,
2013-04-30 00:10:00,49.6,48.5,30.00,NW,304,0.0,0.0,96,0.00,,,0.00,Wunderground v.1.15,2013-04-30 04:10:00,
2013-04-30 00:20:00,50.1,49.0,29.99,NW,304,0.0,0.0,96,0.00,,,0.00,Wunderground v.1.15,2013-04-30 04:20:00,
2013-04-30 00:25:00,50.2,49.1,29.99,NW,304,0.0,0.0,96,0.00,,,0.00,Wunderground v.1.15,2013-04-30 04:25:00,
2013-04-30 00:30:00,50.2,49.1,29.99,NW,304,0.0,0.0,96,0.00,,,0.00,Wunderground v.1.15,2013-04-30 04:30:00,
2013-04-30 00:40:00,50.4,49.3,29.99,NW,304,0.0,0.0,96,0.00,,,0.00,Wunderground v.1.15,2013-04-30 04:40:00,
2013-04-30 00:50:00,50.5,49.4,29.99,NW,304,0.0,0.0,96,0.00,,,0.00,Wunderground v.1.15,2013-04-30 04:50:00,
2013-04-30 01:00:00,50.4,49.3,29.99,NW,304,0.0,0.0,96,0.00,,,0.00,Wunderground v.1.15,2013-04-30 05:00:00,
2013-04-30 01:10:00,50.1,49.0,29.99,NW,304,0.0,0.0,96,0.00,,,0.00,Wunderground v.1.15,2013-04-30 05:10:00,
2013-04-30 01:20:00,49.9,48.8,29.99,NW,304,0.0,0.0,96,0.00,,,0.00,Wunderground v.1.15,2013-04-30 05:20:00,
2013-04-30 01:30:00,50.5,49.7,29.98,NW,304,0.0,0.0,97,0.00,,,0.00,Wunderground v.1.15,2013-04-30 05:30:00,
2013-04-30 01:40:00,51.1,50.3,29.99,NW,304,0.0,0.0,97,0.00,,,0.00,Wunderground v.1.15,2013-04-30 05:40:00,
2013-04-30 01:50:00,51.1,50.0,29.99,NW,304,0.0,0.0,96,0.00,,,0.00,Wunderground v.1.15,2013-04-30 05:50:00,
2013-04-30 02:00:00,51.1,50.0,29.99,NW,304,0.0,0.0,96,0.00,,,0.00,Wunderground v.1.15,2013-04-30 06:00:00,
2013-04-30 02:10:00,51.3,50.2,29.98,NW,304,0.0,0.0,96,0.00,,,0.00,Wunderground v.1.15,2013-04-30 06:10:00,
2013-04-30 02:20:00,51.3,50.2,29.98,NW,304,0.0,0.0,96,0.00,,,0.00,Wunderground v.1.15,2013-04-30 06:20:00,
2013-04-30 02:25:00,51.1,50.0,29.98,NW,304,0.0,0.0,96,0.00,,,0.00,Wunderground v.1.15,2013-04-30 06:25:00,
2013-04-30 02:35:00,50.7,49.6,29.98,NW,304,0.0,0.0,96,0.00,,,0.00,Wunderground v.1.15,2013-04-30 06:35:00,
2013-04-30 02:45:00,50.4,49.3,29.98,NW,304,0.0,0.0,96,0.00,,,0.00,Wunderground v.1.15,2013-04-30 06:45:00,
2013-04-30 02:55:00,50.1,49.0,29.98,NW,304,0.0,0.0,96,0.00,,,0.00,Wunderground v.1.15,2013-04-30 06:55:00,
2013-04-30 03:00:00,49.9,48.8,29.98,NW,304,0.0,0.0,96,0.00,,,0.00,Wunderground v.1.15,2013-04-30 07:00:00,
2013-04-30 03:10:00,49.4,48.3,29.97,NW,304,0.0,0.0,96,0.00,,,0.00,Wunderground v.1.15,2013-04-30 07:10:00,
2013-04-30 03:20:00,48.8,47.7,29.97,NW,304,0.0,0.0,96,0.00,,,0.00,Wunderground v.1.15,2013-04-30 07:20:00,
2013-04-30 03:35:00,48.6,47.8,29.98,NW,304,0.0,0.0,97,0.00,,,0.00,Wunderground v.1.15,2013-04-30 07:35:00,
2013-04-30 03:45:00,48.8,48.3,29.98,NW,304,0.0,0.0,98,0.00,,,0.00,Wunderground v.1.15,2013-04-30 07:45:00,
2013-04-30 03:55:00,49.4,48.9,29.99,NW,304,0.0,0.0,98,0.00,,,0.00,Wunderground v.1.15,2013-04-30 07:55:00,
2013-04-30 04:05:00,49.6,48.8,29.99,NW,304,0.0,0.0,97,0.00,,,0.00,Wunderground v.1.15,2013-04-30 08:05:00,
2013-04-30 04:10:00,49.4,48.6,29.99,NW,304,0.0,0.0,97,0.00,,,0.00,Wunderground v.1.15,2013-04-30 08:10:00,
2013-04-30 04:20:00,48.8,48.0,29.99,NW,304,0.0,0.0,97,0.00,,,0.00,Wunderground v.1.15,2013-04-30 08:20:00,
2013-04-30 04:25:00,48.5,47.7,29.99,NW,304,0.0,0.0,97,0.00,,,0.00,Wunderground v.1.15,2013-04-30 08:25:00,
2013-04-30 04:35:00,48.3,47.8,29.99,NW,304,0.0,0.0,98,0.00,,,0.00,Wunderground v.1.15,2013-04-30 08:35:00,
2013-04-30 04:45:00,48.2,47.7,30.00,NW,304,0.0,0.0,98,0.00,,,0.00,Wunderground v.1.15,2013-04-30 08:45:00,
2013-04-30 04:50:00,48.2,47.7,30.00,NW,304,0.0,0.0,98,0.00,,,0.00,Wunderground v.1.15,2013-04-30 08:50:00,
2013-04-30 04:55:00,47.9,47.4,30.00,NW,304,0.0,0.0,98,0.00,,,0.00,Wunderground v.1.15,2013-04-30 08:55:00,
2013-04-30 05:05:00,47.4,46.9,30.00,NW,304,0.0,0.0,98,0.00,,,0.00,Wunderground v.1.15,2013-04-30 09:05:00,
2013-04-30 05:10:00,47.3,46.8,30.01,NW,304,0.0,0.0,98,0.00,,,0.00,Wunderground v.1.15,2013-04-30 09:10:00,
2013-04-30 05:15:00,47.3,46.8,30.01,NW,304,0.0,0.0,98,0.00,,,0.00,Wunderground v.1.15,2013-04-30 09:15:00,
2013-04-30 05:25:00,47.0,46.5,30.01,NW,304,0.0,0.0,98,0.00,,,0.00,Wunderground v.1.15,2013-04-30 09:25:00,
2013-04-30 05:30:00,46.8,46.3,30.01,NW,304,0.0,0.0,98,0.00,,,0.00,Wunderground v.1.15,2013-04-30 09:30:00,
2013-04-30 05:40:00,46.5,46.0,30.01,NW,304,0.0,0.0,98,0.00,,,0.00,Wunderground v.1.15,2013-04-30 09:40:00,
2013-04-30 05:45:00,46.5,46.0,30.01,NW,304,0.0,0.0,98,0.00,,,0.00,Wunderground v.1.15,2013-04-30 09:45:00,
2013-04-30 05:50:00,46.4,45.9,30.01,NW,304,0.0,0.0,98,0.00,,,0.00,Wunderground v.1.15,2013-04-30 09:50:00,
2013-04-30 06:00:00,46.1,45.6,30.02,NW,304,0.0,0.0,98,0.00,,,0.00,Wunderground v.1.15,2013-04-30 10:00:00,
2013-04-30 06:15:00,45.5,45.0,30.02,NW,304,0.0,0.0,98,0.00,,,0.00,Wunderground v.1.15,2013-04-30 10:15:00,
2013-04-30 06:25:00,45.4,44.9,30.03,NW,304,0.0,0.0,98,0.00,,,0.00,Wunderground v.1.15,2013-04-30 10:25:00,
2013-04-30 06:35:00,45.4,45.1,30.03,NW,304,0.0,0.0,99,0.00,,,0.00,Wunderground v.1.15,2013-04-30 10:35:00,
2013-04-30 06:45:00,45.2,44.9,30.03,NW,304,0.0,0.0,99,0.00,,,0.00,Wunderground v.1.15,2013-04-30 10:45:00,
2013-04-30 06:50:00,45.2,44.9,30.04,NW,304,0.0,0.0,99,0.00,,,0.00,Wunderground v.1.15,2013-04-30 10:50:00,
2013-04-30 07:00:00,45.4,45.1,30.04,NW,304,0.0,0.0,99,0.00,,,0.00,Wunderground v.1.15,2013-04-30 11:00:00,
2013-04-30 07:10:00,45.5,45.2,30.05,NW,304,0.0,0.0,99,0.00,,,0.00,Wunderground v.1.15,2013-04-30 11:10:00,
2013-04-30 07:20:00,45.8,45.5,30.05,NW,304,0.0,0.0,99,0.00,,,0.00,Wunderground v.1.15,2013-04-30 11:20:00,
2013-04-30 07:30:00,46.2,45.9,30.05,NW,304,0.0,0.0,99,0.00,,,0.00,Wunderground v.1.15,2013-04-30 11:30:00,
2013-04-30 07:35:00,46.4,46.1,30.06,NW,304,0.0,0.0,99,0.00,,,0.00,Wunderground v.1.15,2013-04-30 11:35:00,
2013-04-30 07:40:00,46.7,46.4,30.06,NW,304,0.0,0.0,99,0.00,,,0.00,Wunderground v.1.15,2013-04-30 11:40:00,
2013-04-30 07:50:00,47.3,47.3,30.07,NW,304,0.0,0.0,100,0.00,,,0.00,Wunderground v.1.15,2013-04-30 11:50:00,
2013-04-30 08:00:00,49.6,49.6,30.07,NW,304,0.0,0.0,100,0.00,,,0.00,Wunderground v.1.15,2013-04-30 12:00:00,
2013-04-30 08:05:00,51.3,51.3,30.07,NW,304,0.0,0.0,100,0.00,,,0.00,Wunderground v.1.15,2013-04-30 12:05:00,
2013-04-30 08:15:00,53.2,53.2,30.07,NW,304,0.0,0.0,100,0.00,,,0.00,Wunderground v.1.15,2013-04-30 12:15:00,
2013-04-30 08:20:00,53.9,53.9,30.07,NW,304,0.0,0.0,100,0.00,,,0.00,Wunderground v.1.15,2013-04-30 12:20:00,
2013-04-30 08:30:00,54.8,54.5,30.07,NW,304,0.0,0.0,99,0.00,,,0.00,Wunderground v.1.15,2013-04-30 12:30:00,
2013-04-30 08:40:00,55.6,54.5,30.07,NW,304,1.0,1.0,96,0.00,,,0.00,Wunderground v.1.15,2013-04-30 12:40:00,
2013-04-30 08:50:00,56.5,54.8,30.08,NW,304,0.0,0.0,94,0.00,,,0.00,Wunderground v.1.15,2013-04-30 12:50:00,
2013-04-30 09:00:00,57.6,55.3,30.08,NW,304,0.0,0.0,92,0.00,,,0.00,Wunderground v.1.15,2013-04-30 13:00:00,
2013-04-30 09:10:00,58.9,56.0,30.08,NW,304,0.0,0.0,90,0.00,,,0.00,Wunderground v.1.15,2013-04-30 13:10:00,
2013-04-30 09:20:00,59.5,55.9,30.08,NW,304,1.0,3.0,88,0.00,,,0.00,Wunderground v.1.15,2013-04-30 13:20:00,
2013-04-30 09:30:00,59.5,56.3,30.08,NNE,14,1.0,1.0,89,0.00,,,0.00,Wunderground v.1.15,2013-04-30 13:30:00,
2013-04-30 09:35:00,59.9,56.3,30.08,ENE,76,0.0,1.0,88,0.00,,,0.00,Wunderground v.1.15,2013-04-30 13:35:00,
2013-04-30 09:40:00,60.4,55.9,30.08,NE,34,1.0,3.0,85,0.00,,,0.00,Wunderground v.1.15,2013-04-30 13:40:00,
2013-04-30 09:50:00,60.9,56.0,30.08,NNE,22,1.0,1.0,84,0.00,,,0.00,Wunderground v.1.15,2013-04-30 13:50:00,
2013-04-30 10:00:00,61.8,56.2,30.08,NNW,334,0.0,0.0,82,0.00,,,0.00,Wunderground v.1.15,2013-04-30 14:00:00,
2013-04-30 10:10:00,62.3,57.1,30.08,NE,46,0.0,0.0,83,0.00,,,0.00,Wunderground v.1.15,2013-04-30 14:10:00,
2013-04-30 10:20:00,63.1,57.5,30.08,NE,44,0.0,0.0,82,0.00,,,0.00,Wunderground v.1.15,2013-04-30 14:20:00,
2013-04-30 10:30:00,63.7,57.4,30.07,NE,44,0.0,0.0,80,0.00,,,0.00,Wunderground v.1.15,2013-04-30 14:30:00,
2013-04-30 10:35:00,64.2,56.5,30.07,NE,44,0.0,0.0,76,0.00,,,0.00,Wunderground v.1.15,2013-04-30 14:35:00,
2013-04-30 10:45:00,64.5,57.1,30.07,NE,44,1.0,1.0,77,0.00,,,0.00,Wunderground v.1.15,2013-04-30 14:45:00,
2013-04-30 10:55:00,65.2,57.4,30.07,NE,44,0.0,0.0,76,0.00,,,0.00,Wunderground v.1.15,2013-04-30 14:55:00,
2013-04-30 11:00:00,65.6,56.7,30.07,NE,44,0.0,1.0,73,0.00,,,0.00,Wunderground v.1.15,2013-04-30 15:00:00,
2013-04-30 11:10:00,66.3,57.0,30.06,NE,44,0.0,5.0,72,0.00,,,0.00,Wunderground v.1.15,2013-04-30 15:10:00,
2013-04-30 11:20:00,66.4,57.9,30.07,NE,44,0.0,0.0,74,0.00,,,0.00,Wunderground v.1.15,2013-04-30 15:20:00,
2013-04-30 11:25:00,66.9,58.7,30.06,NE,44,0.0,0.0,75,0.00,,,0.00,Wunderground v.1.15,2013-04-30 15:25:00,
2013-04-30 11:30:00,67.3,57.2,30.07,NE,44,0.0,0.0,70,0.00,,,0.00,Wunderground v.1.15,2013-04-30 15:30:00,
2013-04-30 11:35:00,67.4,57.3,30.06,NE,45,0.0,0.0,70,0.00,,,0.00,Wunderground v.1.15,2013-04-30 15:35:00,
2013-04-30 11:40:00,67.4,57.7,30.06,NE,45,0.0,0.0,71,0.00,,,0.00,Wunderground v.1.15,2013-04-30 15:40:00,
2013-04-30 11:50:00,67.9,57.8,30.06,NE,45,0.0,0.0,70,0.00,,,0.00,Wunderground v.1.15,2013-04-30 15:50:00,
2013-04-30 12:05:00,68.8,58.2,30.06,NE,46,0.0,0.0,69,0.00,,,0.00,Wunderground v.1.15,2013-04-30 16:05:00,
2013-04-30 12:15:00,69.3,58.3,30.05,NE,46,0.0,0.0,68,0.00,,,0.00,Wunderground v.1.15,2013-04-30 16:15:00,
2013-04-30 12:20:00,69.4,57.5,30.05,NE,44,0.0,0.0,66,0.00,,,0.00,Wunderground v.1.15,2013-04-30 16:20:00,
2013-04-30 12:30:00,69.9,57.6,30.05,NE,44,0.0,1.0,65,0.00,,,0.00,Wunderground v.1.15,2013-04-30 16:30:00,
2013-04-30 12:40:00,69.6,56.0,30.05,NE,44,1.0,1.0,62,0.00,,,0.00,Wunderground v.1.15,2013-04-30 16:40:00,
2013-04-30 12:50:00,69.8,54.4,30.05,NE,44,0.0,0.0,58,0.00,,,0.00,Wunderground v.1.15,2013-04-30 16:50:00,
2013-04-30 12:55:00,69.9,54.9,30.05,NE,44,0.0,0.0,59,0.00,,,0.00,Wunderground v.1.15,2013-04-30 16:55:00,
2013-04-30 13:00:00,70.3,56.7,30.04,NE,44,0.0,0.0,62,0.00,,,0.00,Wunderground v.1.15,2013-04-30 17:00:00,
2013-04-30 13:10:00,70.9,56.3,30.04,NNE,30,1.0,1.0,60,0.00,,,0.00,Wunderground v.1.15,2013-04-30 17:10:00,
2013-04-30 13:20:00,71.1,57.4,30.03,NNE,32,0.0,1.0,62,0.00,,,0.00,Wunderground v.1.15,2013-04-30 17:20:00,
2013-04-30 13:30:00,71.8,55.3,30.03,NNE,32,0.0,0.0,56,0.00,,,0.00,Wunderground v.1.15,2013-04-30 17:30:00,
2013-04-30 13:40:00,72.1,53.5,30.03,NNE,32,0.0,0.0,52,0.00,,,0.00,Wunderground v.1.15,2013-04-30 17:40:00,
2013-04-30 13:50:00,72.8,54.1,30.03,SSW,194,1.0,1.0,52,0.00,,,0.00,Wunderground v.1.15,2013-04-30 17:50:00,
2013-04-30 14:00:00,73.5,52.6,30.02,SSW,196,0.0,0.0,48,0.00,,,0.00,Wunderground v.1.15,2013-04-30 18:00:00,
2013-04-30 14:10:00,73.2,54.5,30.02,East,101,0.0,0.0,52,0.00,,,0.00,Wunderground v.1.15,2013-04-30 18:10:00,
2013-04-30 14:20:00,73.2,55.6,30.02,SE,140,0.0,0.0,54,0.00,,,0.00,Wunderground v.1.15,2013-04-30 18:20:00,
2013-04-30 14:30:00,73.3,51.3,30.02,South,184,1.0,1.0,46,0.00,,,0.00,Wunderground v.1.15,2013-04-30 18:30:00,
2013-04-30 14:40:00,74.0,55.3,30.01,South,186,1.0,1.0,52,0.00,,,0.00,Wunderground v.1.15,2013-04-30 18:40:00,
2013-04-30 14:50:00,74.9,55.6,30.01,SSE,167,0.0,0.0,51,0.00,,,0.00,Wunderground v.1.15,2013-04-30 18:50:00,
2013-04-30 15:00:00,74.6,54.2,30.01,South,169,0.0,0.0,49,0.00,,,0.00,Wunderground v.1.15,2013-04-30 19:00:00,
2013-04-30 15:10:00,75.1,51.1,30.01,South,169,0.0,0.0,43,0.00,,,0.00,Wunderground v.1.15,2013-04-30 19:10:00,
2013-04-30 15:20:00,75.6,51.5,30.01,ESE,109,0.0,0.0,43,0.00,,,0.00,Wunderground v.1.15,2013-04-30 19:20:00,
2013-04-30 15:30:00,75.1,51.7,30.00,East,81,0.0,0.0,44,0.00,,,0.00,Wunderground v.1.15,2013-04-30 19:30:00,
2013-04-30 15:40:00,75.1,49.1,30.00,East,81,0.0,0.0,40,0.00,,,0.00,Wunderground v.1.15,2013-04-30 19:40:00,
2013-04-30 15:50:00,75.3,51.3,30.00,NNE,32,1.0,1.0,43,0.00,,,0.00,Wunderground v.1.15,2013-04-30 19:50:00,
2013-04-30 15:56:00,75.3,54.3,30.00,NNE,32,1.0,1.0,48,0.00,,,0.00,Wunderground v.1.15,2013-04-30 19:56:00,
2013-04-30 16:05:00,75.3,51.9,30.00,East,94,0.0,0.0,44,0.00,,,0.00,Wunderground v.1.15,2013-04-30 20:05:00,
2013-04-30 16:15:00,75.3,47.9,29.99,NE,37,1.0,1.0,38,0.00,,,0.00,Wunderground v.1.15,2013-04-30 20:15:00,
2013-04-30 16:20:00,75.4,53.2,29.99,NE,41,1.0,2.0,46,0.00,,,0.00,Wunderground v.1.15,2013-04-30 20:20:00,
2013-04-30 16:30:00,75.1,52.9,29.99,East,95,1.0,1.0,46,0.00,,,0.00,Wunderground v.1.15,2013-04-30 20:30:00,
2013-04-30 16:40:00,75.1,53.5,29.99,SSE,159,1.0,1.0,47,0.00,,,0.00,Wunderground v.1.15,2013-04-30 20:40:00,
2013-04-30 16:50:00,75.1,55.2,29.99,NNE,30,1.0,1.0,50,0.00,,,0.00,Wunderground v.1.15,2013-04-30 20:50:00,
2013-04-30 16:55:00,75.1,54.6,29.99,NE,44,1.0,1.0,49,0.00,,,0.00,Wunderground v.1.15,2013-04-30 20:55:00,
2013-04-30 17:00:00,75.1,55.2,29.99,East,83,1.0,1.0,50,0.00,,,0.00,Wunderground v.1.15,2013-04-30 21:00:00,
2013-04-30 17:05:00,75.3,54.8,29.99,NE,49,0.0,2.0,49,0.00,,,0.00,Wunderground v.1.15,2013-04-30 21:05:00,
2013-04-30 17:15:00,75.8,56.9,29.99,North,10,1.0,1.0,52,0.00,,,0.00,Wunderground v.1.15,2013-04-30 21:15:00,
2013-04-30 17:20:00,75.6,54.5,29.99,NE,44,2.0,6.0,48,0.00,,,0.00,Wunderground v.1.15,2013-04-30 21:20:00,
2013-04-30 17:25:00,74.4,56.2,29.99,NE,52,4.0,6.0,53,0.00,,,0.00,Wunderground v.1.15,2013-04-30 21:25:00,
2013-04-30 17:30:00,74.0,55.8,29.99,NNE,19,6.0,7.0,53,0.00,,,0.00,Wunderground v.1.15,2013-04-30 21:30:00,
2013-04-30 17:40:00,72.5,55.4,30.00,NE,49,3.0,3.0,55,0.00,,,0.00,Wunderground v.1.15,2013-04-30 21:40:00,
2013-04-30 17:45:00,72.5,54.9,30.00,NE,51,1.0,3.0,54,0.00,,,0.00,Wunderground v.1.15,2013-04-30 21:45:00,
2013-04-30 17:55:00,73.5,53.7,30.00,ENE,73,1.0,2.0,50,0.00,,,0.00,Wunderground v.1.15,2013-04-30 21:55:00,
2013-04-30 18:00:00,73.3,54.1,30.01,East,86,1.0,1.0,51,0.00,,,0.00,Wunderground v.1.15,2013-04-30 22:00:00,
2013-04-30 18:10:00,73.5,53.7,30.01,East,84,0.0,0.0,50,0.00,,,0.00,Wunderground v.1.15,2013-04-30 22:10:00,
2013-04-30 18:20:00,74.7,55.4,30.01,NE,43,0.0,0.0,51,0.00,,,0.00,Wunderground v.1.15,2013-04-30 22:20:00,
2013-04-30 18:25:00,75.3,54.8,30.01,SE,138,0.0,0.0,49,0.00,,,0.00,Wunderground v.1.15,2013-04-30 22:25:00,
2013-04-30 18:30:00,75.3,55.4,30.01,ENE,78,0.0,0.0,50,0.00,,,0.00,Wunderground v.1.15,2013-04-30 22:30:00,
2013-04-30 18:35:00,75.3,56.5,30.01,ENE,78,0.0,0.0,52,0.00,,,0.00,Wunderground v.1.15,2013-04-30 22:35:00,
2013-04-30 18:40:00,74.7,54.8,30.02,SE,144,1.0,1.0,50,0.00,,,0.00,Wunderground v.1.15,2013-04-30 22:40:00,
2013-04-30 18:50:00,73.9,55.7,30.02,SE,144,0.0,0.0,53,0.00,,,0.00,Wunderground v.1.15,2013-04-30 22:50:00,
2013-04-30 19:00:00,72.3,54.7,30.03,SE,144,0.0,0.0,54,0.00,,,0.00,Wunderground v.1.15,2013-04-30 23:00:00,
2013-04-30 19:10:00,71.3,54.8,30.03,SE,140,0.0,0.0,56,0.00,,,0.00,Wunderground v.1.15,2013-04-30 23:10:00,
2013-04-30 19:20:00,70.1,54.2,30.03,SE,138,0.0,0.0,57,0.00,,,0.00,Wunderground v.1.15,2013-04-30 23:20:00,
2013-04-30 19:25:00,69.8,54.8,30.03,SE,138,0.0,0.0,59,0.00,,,0.00,Wunderground v.1.15,2013-04-30 23:25:00,
2013-04-30 19:35:00,68.9,54.4,30.04,SE,138,0.0,0.0,60,0.00,,,0.00,Wunderground v.1.15,2013-04-30 23:35:00,
2013-04-30 19:40:00,68.6,54.6,30.04,SE,138,0.0,0.0,61,0.00,,,0.00,Wunderground v.1.15,2013-04-30 23:40:00,
2013-04-30 19:50:00,68.3,54.8,30.05,SE,138,0.0,0.0,62,0.00,,,0.00,Wunderground v.1.15,2013-04-30 23:50:00,
2013-04-30 19:55:00,68.1,54.6,30.05,SE,136,0.0,2.0,62,0.00,,,0.00,Wunderground v.1.15,2013-04-30 23:55:00,
2013-04-30 20:05:00,67.6,54.1,30.05,SE,136,0.0,0.0,62,0.00,,,0.00,Wunderground v.1.15,2013-05-01 00:05:00,
2013-04-30 20:15:00,67.1,54.1,30.06,SE,136,0.0,0.0,63,0.00,,,0.00,Wunderground v.1.15,2013-05-01 00:15:00,
2013-04-30 20:20:00,66.9,54.3,30.06,SE,136,0.0,0.0,64,0.00,,,0.00,Wunderground v.1.15,2013-05-01 00:20:00,
2013-04-30 20:30:00,66.4,54.3,30.07,SE,136,0.0,0.0,65,0.00,,,0.00,Wunderground v.1.15,2013-05-01 00:30:00,
2013-04-30 20:35:00,66.1,54.4,30.07,SE,136,0.0,0.0,66,0.00,,,0.00,Wunderground v.1.15,2013-05-01 00:35:00,
2013-04-30 20:40:00,65.8,54.5,30.07,SE,136,0.0,0.0,67,0.00,,,0.00,Wunderground v.1.15,2013-05-01 00:40:00,
2013-04-30 20:50:00,65.0,54.2,30.07,SE,136,0.0,0.0,68,0.00,,,0.00,Wunderground v.1.15,2013-05-01 00:50:00,
2013-04-30 20:55:00,64.7,54.7,30.07,SE,136,0.0,0.0,70,0.00,,,0.00,Wunderground v.1.15,2013-05-01 00:55:00,
2013-04-30 21:05:00,63.9,54.3,30.08,SE,136,0.0,0.0,71,0.00,,,0.00,Wunderground v.1.15,2013-05-01 01:05:00,
2013-04-30 21:10:00,63.7,54.1,30.08,SE,136,0.0,0.0,71,0.00,,,0.00,Wunderground v.1.15,2013-05-01 01:10:00,
2013-04-30 21:20:00,63.4,54.2,30.09,SE,136,0.0,0.0,72,0.00,,,0.00,Wunderground v.1.15,2013-05-01 01:20:00,
2013-04-30 21:30:00,62.9,54.5,30.09,SE,136,0.0,0.0,74,0.00,,,0.00,Wunderground v.1.15,2013-05-01 01:30:00,
2013-04-30 21:40:00,62.6,54.6,30.10,SE,136,0.0,0.0,75,0.00,,,0.00,Wunderground v.1.15,2013-05-01 01:40:00,
2013-04-30 21:45:00,62.4,54.4,30.10,SE,136,0.0,0.0,75,0.00,,,0.00,Wunderground v.1.15,2013-05-01 01:45:00,
2013-04-30 21:55:00,61.6,54.3,30.11,SE,136,0.0,0.0,77,0.00,,,0.00,Wunderground v.1.15,2013-05-01 01:55:00,
2013-04-30 22:05:00,60.9,54.0,30.11,SE,136,0.0,0.0,78,0.00,,,0.00,Wunderground v.1.15,2013-05-01 02:05:00,
2013-04-30 22:15:00,60.4,53.9,30.12,SE,136,0.0,0.0,79,0.00,,,0.00,Wunderground v.1.15,2013-05-01 02:15:00,
2013-04-30 22:21:00,60.1,53.9,30.11,SE,136,0.0,0.0,80,0.00,,,0.00,Wunderground v.1.15,2013-05-01 02:21:00,
2013-04-30 22:30:00,59.6,53.8,30.12,SE,136,0.0,0.0,81,0.00,,,0.00,Wunderground v.1.15,2013-05-01 02:30:00,
2013-04-30 22:35:00,59.5,54.0,30.12,SE,136,0.0,0.0,82,0.00,,,0.00,Wunderground v.1.15,2013-05-01 02:35:00,
2013-04-30 22:40:00,59.3,54.1,30.12,SE,136,0.0,0.0,83,0.00,,,0.00,Wunderground v.1.15,2013-05-01 02:40:00,
2013-04-30 22:50:00,58.9,53.7,30.12,SE,136,0.0,1.0,83,0.00,,,0.00,Wunderground v.1.15,2013-05-01 02:50:00,
2013-04-30 23:00:00,58.6,54.1,30.12,SE,136,0.0,0.0,85,0.00,,,0.00,Wunderground v.1.15,2013-05-01 03:00:00,
2013-04-30 23:05:00,58.4,53.9,30.12,SE,136,0.0,0.0,85,0.00,,,0.00,Wunderground v.1.15,2013-05-01 03:05:00,
2013-04-30 23:11:00,58.4,53.9,30.12,SE,136,0.0,0.0,85,0.00,,,0.00,Wunderground v.1.15,2013-05-01 03:11:00,
2013-04-30 23:20:00,58.1,53.6,30.12,SE,136,0.0,3.0,85,0.00,,,0.00,Wunderground v.1.15,2013-05-01 03:20:00,
2013-04-30 23:30:00,58.0,53.5,30.12,SE,128,1.0,1.0,85,0.00,,,0.00,Wunderground v.1.15,2013-05-01 03:30:00,
2013-04-30 23:40:00,57.8,53.3,30.13,SE,126,1.0,1.0,85,0.00,,,0.00,Wunderground v.1.15,2013-05-01 03:40:00,
2013-04-30 23:50:00,57.6,53.1,30.12,SE,124,0.0,1.0,85,0.00,,,0.00,Wunderground v.1.15,2013-05-01 03:50:00,
2013-04-30 23:55:00,57.5,53.3,30.12,ESE,123,1.0,1.0,86,0.00,,,0.00,Wunderground v.1.15,2013-05-01 03:55:00,